Flag for U.S.A. Weather past 2 weeks in Victorville, California, U.S.A.

Now
70 °F

Sunny.


Feels Like: 70 °F
Forecast: 51 / 81 °F
Wind: 5 mph from East

Location: George Air Force Base / Victorvi

Current Time: May 26, 2015 at 9:39:02 AM

Latest Report: May 26, 2015 at 9:15 AM


Visibility: 10 mi

Pressure: 29.98 "Hg

Humidity: 38%

Dew point: 43 °F

Location of VictorvilleLocation

Historic Weather in Victorville — Graph

°F

Victorville temperature yesterday

Maximum temperature yesterday: 82 °F (at 1:55 PM)
Minimum temperature yesterday: 54 °F (at 4:35 AM)
Average temperature yesterday: 67 °F

Past Weeks' High & Low Weather Summary

 TemperatureHumidityPressure
High82 °F (May 11, 1:15 PM)87% (May 15, 3:35 AM)30.06 "Hg (May 15, 3:35 AM)
Low39 °F (May 15, 3:35 AM)12% (May 12, 12:35 PM)29.80 "Hg (May 12, 4:35 PM)
Average60 °F48%29.93 "Hg
* Reported May 11 8:15 AM — May 26 8:15 AM, Victorville, Weather by CustomWeather, © 2015

Note: Actual official high and low records may vary slightly from our data, if they occured in-between our weather recording intervals... More about our weather records

Advertising

Victorville weather history for previous 24 hours

 ConditionsComfort  
Time TempWeatherWind HumidityBarometerVisibility
8:15 AM
Tue, May 26
64 °FSunny.3 mph49%29.98 "Hg10 mi
7:55 AM63 °FSunny.7 mph56%29.98 "Hg10 mi
7:35 AM61 °FSunny.9 mph59%29.98 "Hg10 mi
7:15 AM59 °FSunny.8 mph63%29.98 "Hg10 mi
6:55 AM59 °FSunny.7 mph63%29.98 "Hg10 mi
6:35 AM57 °FClear.7 mph63%29.98 "Hg10 mi
6:15 AM55 °FClear.5 mph67%29.96 "Hg10 mi
5:55 AM55 °FClear.8 mph67%29.96 "Hg10 mi
5:15 AM55 °FClear.8 mph67%29.96 "Hg10 mi
4:55 AM55 °FClear.No wind67%29.95 "Hg10 mi
4:15 AM54 °FClear.3 mph72%29.95 "Hg10 mi
3:55 AM52 °FClear.5 mph77%29.95 "Hg10 mi
3:35 AM54 °FClear.3 mph72%29.95 "Hg10 mi
3:15 AM55 °FClear.6 mph67%29.95 "Hg10 mi
2:55 AM57 °FClear.7 mph67%29.96 "Hg10 mi
2:15 AM57 °FClear.No wind67%29.96 "Hg10 mi
1:55 AM57 °FClear.No wind67%29.97 "Hg10 mi
1:35 AM57 °FClear.No wind67%29.97 "Hg10 mi
1:15 AM59 °FClear.8 mph63%29.97 "Hg10 mi
12:55 AM59 °FClear.8 mph63%29.98 "Hg10 mi
12:15 AM61 °FClear.9 mph59%29.98 "Hg10 mi
11:55 PM
Mon, May 25
59 °FClear.9 mph63%29.98 "Hg10 mi
11:35 PM61 °FClear.12 mph59%29.98 "Hg10 mi
11:15 PM61 °FClear.10 mph59%29.98 "Hg10 mi
10:55 PM61 °FClear.8 mph59%29.98 "Hg10 mi
10:15 PM63 °FClear.8 mph52%29.97 "Hg10 mi
9:55 PM63 °FClear.7 mph52%29.97 "Hg10 mi
9:35 PM63 °FClear.6 mph52%29.96 "Hg10 mi
9:15 PM64 °FClear.7 mph49%29.95 "Hg10 mi
8:35 PM66 °FSunny.9 mph46%29.93 "Hg10 mi
8:15 PM68 °FSunny.9 mph43%29.93 "Hg10 mi
7:55 PM70 °FSunny.12 mph38%29.92 "Hg10 mi
7:15 PM72 °FSunny.15 mph36%29.91 "Hg10 mi
6:55 PM73 °FSunny.17 mph29%29.90 "Hg10 mi
6:35 PM77 °FSunny.18 mph26%29.89 "Hg10 mi
6:15 PM79 °FSunny.18 mph23%29.88 "Hg10 mi
5:55 PM81 °FSunny.15 mph21%29.88 "Hg10 mi
5:35 PM81 °FSunny.17 mph20%29.88 "Hg10 mi
5:15 PM82 °FSunny.17 mph17%29.89 "Hg10 mi
4:55 PM82 °FSunny.17 mph19%29.89 "Hg10 mi
4:35 PM82 °FSunny.20 mph19%29.89 "Hg10 mi
4:15 PM82 °FSunny.20 mph17%29.90 "Hg10 mi
3:55 PM82 °FSunny.21 mph17%29.90 "Hg10 mi
3:15 PM82 °FSunny.21 mph17%29.91 "Hg10 mi
2:55 PM82 °FSunny.17 mph17%29.91 "Hg10 mi
2:15 PM82 °FSunny.No wind19%29.92 "Hg10 mi
1:55 PM82 °FSunny.10 mph21%29.92 "Hg10 mi
1:15 PM81 °FSunny.13 mph21%29.93 "Hg10 mi
12:55 PM81 °FSunny.15 mph18%29.94 "Hg10 mi
12:15 PM81 °FSunny.13 mph17%29.95 "Hg10 mi
11:55 AM77 °FSunny.No wind26%29.95 "Hg10 mi
11:35 AM75 °FSunny.No wind29%29.96 "Hg10 mi
11:15 AM75 °FSunny.5 mph29%29.96 "Hg10 mi
10:55 AM75 °FSunny.6 mph31%29.96 "Hg10 mi
10:35 AM73 °FSunny.5 mph33%29.95 "Hg10 mi
10:15 AM72 °FSunny.5 mph36%29.96 "Hg10 mi
9:55 AM72 °FSunny.5 mph36%29.96 "Hg10 mi
9:15 AM70 °FSunny.7 mph40%29.96 "Hg10 mi
Weather by CustomWeather, © 2015

See weather overviewHow to use our weather pages